Regional Weather Roundup
Issued by NWS

Home | Current Version | Previous Version | Text Only | Print | Product List | Glossary On
Versions: 1 2 3 4 5 6 7 8 9 10 11 12 13 14 15 16 17 18 19 20 21 22 23 24 25 26 27 28 29 30 31 32 33 34 35 36 37 38 39 40 41 42 43 44 45 46 47 48 49 50
000
ASUS43 KTOP 020808
RWRKS

WEATHER ROUNDUP FOR KANSAS
NATIONAL WEATHER SERVICE GOODLAND KS
300 AM CDT TUE SEP 02 2014

NOTE:  "FAIR" INDICATES FEW OR NO CLOUDS BELOW 12,000 FEET WITH NO
SIGNIFICANT WEATHER AND/OR OBSTRUCTIONS TO VISIBILITY.

KSZ001>006-013>018-027>032-041>047-020900-
NORTHWEST KANSAS

CITY           SKY/WX    TMP DP  RH WIND       PRES   REMARKS
GOODLAND       CLEAR     58  55  90 E6        30.07R
HAYS           MOCLDY    64  59  82 N13       29.99F
HILL CITY      CLEAR     60  57  89 CALM      30.02S
RUSSELL        PTCLDY    64  60  87 NE6       29.97R
$$

KSZ061>065-074>080-084>089-020900-
SOUTHWEST KANSAS

CITY           SKY/WX    TMP DP  RH WIND       PRES   REMARKS
DODGE CITY     MOCLDY    67  64  90 E6        29.95F
ELKHART          N/A     66  60  81 E12         N/A
GARDEN CITY    CLOUDY    64  62  93 E5        29.98R
GREAT BEND     MOCLDY    66  63  88 NE8       29.96R
LIBERAL        PTCLDY    68  63  83 NE9       29.97S
PRATT          MOCLDY    68  64  88 E9        29.92F
$$

KSZ066>073-081>083-090>101-020900-
SOUTHEAST KANSAS

CITY           SKY/WX    TMP DP  RH WIND       PRES   REMARKS
CHANUTE        CLOUDY    71  67  87 S7        29.91R
COFFEYVILLE    TSTM      71  71 100 MISG      29.93F FOG
HUTCHINSON     MOCLDY    70  67  90 E6        29.94R
MEDICINE LODGE   N/A     73  69  87 NE12      29.88S
NEWTON         CLOUDY    68  63  83 NE5       29.97R
PARSONS        CLOUDY    69  65  86 SE5       29.92R
WICHITA INTL   CLOUDY    74  68  81 E10       29.92R
WICHITA JABRA  CLOUDY    70  68  93 NE7       29.92R
WICHITA MCCONL MOCLDY    72  72 100 E8        29.92R
WINFIELD       RAIN      73  72  96 NE8       29.92R
$$

KSZ007>012-019>026-033>040-048>060-102>105-020900-
NORTHEAST KANSAS

CITY           SKY/WX    TMP DP  RH WIND       PRES   REMARKS
CONCORDIA      CLEAR     62  60  93 N3        29.98R
EMPORIA        CLOUDY    70  69  97 NE5       29.93R
MANHATTAN      PTCLDY    66  65  96 S5        29.93F
OLATHE IND     CLOUDY    70  69  97 NW3       29.93R
OLATHE EXE     CLOUDY    69  69 100 NW3       29.92R
SALINA         PTCLDY    69  66  90 N3        29.96S
TOPEKA BILLARD MOCLDY    69  68  96 NW9       29.94S FOG
TOPEKA FORBES  MOCLDY    70  68  93 N3        29.93S
$$


USA.gov is the U.S. government's official web portal to all federal, state and local government web resources and services.